[[{"header":{"parameterUnit":"m.s-1","parameterCategory":1,"la1":30.2991,"la2":30.254,"lo1":-89.0895,"lo2":-89.0444,"dy":0.0017,"dx":0.0017,"nx":28,"ny":28,"refTime":"2025-04-24T21:00:00:Z","depth":0,"parameterNumber":2,"parameterNumberName":"U-component_of_WINDS"},"data":[0,0,0,0,0,0,0,0,0,0,0,0,0,0,0,0,0,0,0,0,0,0,0,0,0,0,0,0,0,0,0,0,0,0,0,0,0,0,0,0,0,0,0,0,0,0,0,0,0,0,0,0,0,0,0,0,0,0,-2.7012,-2.7013,0,-2.7051,-2.7051,-2.7051,-2.7021,-2.702,-2.7018,-2.7017,-2.7056,-2.7058,-2.706,0,0,0,0,0,0,0,0,0,0,0,0,0,-2.6913,-2.6915,-2.7012,-2.7013,-2.7013,-2.705,-2.7051,-2.7051,-2.7021,-2.702,-2.7018,-2.7017,-2.7055,-2.7058,-2.7061,0,0,0,0,0,0,0,0,0,0,0,0,0,-2.6955,-2.6916,-2.7012,-2.7002,-2.7002,-2.705,-2.7051,-2.7052,-2.7022,-2.702,-2.7018,-2.7016,-2.7054,-2.7058,-2.7061,-2.7121,0,0,-2.7071,-2.7073,0,0,0,0,0,0,0,0,-2.6952,-2.6958,-2.7003,-2.7003,-2.7003,-2.7029,-2.703,-2.7075,-2.7022,-2.7014,-2.7017,-2.7015,-2.7049,-2.7052,-2.7064,-2.7123,-2.7124,-2.7072,-2.7074,-2.7075,-2.7076,0,0,0,0,0,0,0,-2.6949,-2.6956,-2.7027,-2.7004,-2.7004,-2.6997,-2.7,-2.7039,-2.7042,-2.7015,-2.7013,-2.7018,-2.7048,-2.7061,-2.7064,-2.7125,-2.7072,-2.7074,-2.7077,-2.7078,-2.7236,-2.7238,0,0,0,0,0,0,-2.6947,-2.6954,-2.7026,-2.7028,-2.6972,-2.7,-2.7004,-2.7023,-2.7041,-2.7042,-2.7019,-2.7016,-2.7056,-2.7061,-2.7066,-2.7137,-2.7075,-2.7078,-2.708,-2.7234,-2.7236,-2.7239,0,0,0,0,0,0,-2.6945,-2.6954,-2.7024,-2.6991,-2.6999,-2.7004,-2.7025,-2.7024,-2.7037,-2.7045,-2.7045,-2.7031,-2.7054,-2.7061,-2.7108,-2.7138,-2.708,-2.7083,-2.7231,-2.7234,-2.7237,-2.728,0,0,0,0,0,0,-2.6943,-2.6954,-2.6976,-2.6992,-2.7001,-2.7065,-2.7027,-2.7026,-2.7043,-2.7039,-2.7056,-2.7057,-2.7053,-2.7103,-2.7111,-2.7142,-2.7085,-2.7228,-2.7233,-2.7236,-2.7276,-2.7285,-2.7292,0,0,0,0,0,-2.6939,-2.6986,-2.6977,-2.6986,-2.7029,-2.7067,-2.7073,-2.7068,-2.7045,-2.7068,-2.7073,-2.7057,-2.7134,-2.7108,-2.7117,-2.7149,-2.7226,-2.7231,-2.7236,-2.7273,-2.7283,-2.7292,0,0,0,0,0,0,-2.6973,-2.6988,-2.6978,-2.7031,-2.7048,-2.7062,-2.709,-2.7079,-2.7102,-2.7097,-2.709,-2.7094,-2.7143,-2.7151,-2.7122,-2.7208,-2.7176,-2.7183,-2.7201,-2.7211,-2.7219,-2.7215,-2.7088,0,0,0,0,0,-2.6987,-2.7017,-2.7028,-2.7074,-2.7083,-2.7086,-2.7102,-2.7097,-2.7114,-2.7121,-2.7129,-2.7147,-2.7175,-2.7194,-2.722,-2.7278,-2.7281,-2.7305,-2.7312,-2.7319,-2.7324,-2.7356,-2.7367,-2.7255,-2.7255,-2.7255,0,0,-2.7016,-2.7027,-2.7046,-2.7081,-2.7094,-2.7125,-2.7092,-2.7126,-2.7149,-2.7126,-2.717,-2.7178,-2.7197,-2.7249,-2.7273,-2.7257,-2.7357,-2.7325,-2.733,-2.7332,-2.7362,-2.7373,-2.7382,-2.7258,-2.7257,-2.7257,0,0,-2.7083,-2.7095,-2.7135,-2.7149,-2.7169,-2.717,-2.718,-2.7196,-2.72,-2.7245,-2.7229,-2.7257,-2.7305,-2.732,-2.7333,-2.7409,-2.7395,-2.7418,-2.7459,-2.749,-2.7498,-2.7506,-2.7533,-2.7543,-2.7424,-2.7424,-2.7424,0,-2.7116,-2.7162,-2.7157,-2.7193,-2.7209,-2.7191,-2.7231,-2.7245,-2.7272,-2.7284,-2.7266,-2.7328,-2.7339,-2.7395,-2.7414,-2.7426,-2.7437,-2.7415,-2.7498,-2.7505,-2.7513,-2.7538,-2.7548,-2.7427,-2.7427,-2.7426,-2.7426,0,-2.7202,-2.7234,-2.7264,-2.7291,-2.7311,-2.7349,-2.735,-2.7371,-2.7365,-2.7368,-2.7415,-2.7429,-2.7458,-2.7471,-2.7465,-2.7527,-2.7516,-2.7499,-2.7466,-2.7526,-2.755,-2.756,-2.7431,-2.743,-2.7429,-2.7428,0,0,-2.729,-2.7315,-2.7326,-2.7339,-2.736,-2.7386,-2.7424,-2.7452,-2.747,-2.7491,-2.7522,-2.7565,-2.7549,-2.7565,-2.7561,-2.7588,-2.7648,-2.7567,-2.7567,-2.7581,-2.7717,-2.7729,-2.7741,-2.7639,-2.7641,-2.7642,-2.7715,0,-2.7358,-2.7423,-2.7421,-2.7482,-2.7512,-2.7497,-2.753,-2.7547,-2.7552,-2.7579,-2.7585,-2.7615,-2.7592,-2.7601,-2.7628,-2.7635,-2.7675,-2.763,-2.7668,-2.767,-2.7663,-2.7753,-2.7767,-2.7834,-2.7724,-2.7726,-2.7727,0,-2.7446,-2.747,-2.7534,-2.7552,-2.7565,-2.7595,-2.7622,-2.7648,-2.7667,-2.7669,-2.7688,-2.768,-2.7719,-2.7687,-2.7741,-2.771,-2.7726,-2.7732,-2.7735,-2.7737,-2.7701,-2.7758,-2.7856,-2.7866,-2.7742,-2.7741,-2.774,0,-2.7503,-2.7552,-2.7597,-2.7608,-2.763,-2.7652,-2.7662,-2.768,-2.7698,-2.7722,-2.7734,-2.7762,-2.7778,-2.78,-2.78,-2.7777,-2.7855,-2.7823,-2.7858,-2.7858,-2.7873,-2.7872,-2.7975,-2.7885,-2.7885,-2.7885,-2.7885,0,-2.7579,-2.7619,-2.7623,-2.765,-2.7695,-2.7692,-2.7737,-2.7745,-2.7762,-2.7791,-2.778,-2.7807,-2.7806,-2.7835,-2.7836,-2.788,-2.7888,-2.789,-2.789,-2.7891,-2.789,-2.79,-2.7895,-2.7888,-2.7887,-2.7887,-2.7886,0,-2.765,-2.7654,-2.7702,-2.772,-2.7726,-2.7758,-2.7773,-2.78,-2.7805,-2.7842,-2.7851,-2.7859,-2.7892,-2.7895,-2.7933,-2.7934,-2.7988,-2.7983,-2.7981,-2.798,-2.8014,-2.8011,-2.8126,-2.8141,-2.8043,-2.8044,-2.8044,0,-2.7698,-2.7728,-2.775,-2.7769,-2.7781,-2.7811,-2.783,-2.7829,-2.7849,-2.7875,-2.7899,-2.7931,-2.7956,-2.8011,-2.802,-2.8049,-2.8044,-2.8083,-2.8049,-2.8049,-2.8045,-2.8042,-2.8046,-2.8089,-2.809,-2.8091,-2.8092,0,-2.7782,-2.7783,-2.781,-2.7839,-2.7862,-2.7884,-2.7905,-2.7922,-2.7924,-2.7947,-2.7981,-2.8001,-2.8041,-2.8073,-2.8103,-2.8114,-2.8103,-2.8103,-2.8112,-2.8113,-2.8111,-2.8112,-2.7998,-2.81,-2.8099,-2.8098,-2.8098,-2.8098,-2.7842,-2.7869,-2.7889,-2.792,-2.7936,-2.7956,-2.7982,-2.7991,-2.802,-2.8052,-2.805,-2.8088,-2.8108,-2.8147,-2.8161,-2.819,-2.8177,-2.8191,-2.8195,-2.8198,-2.8201,-2.8107,-2.8196,-2.8196,-2.8195,-2.8195,-2.8195,0,-2.7926,-2.7938,-2.7967,-2.7997,-2.8022,-2.8011,-2.8034,-2.8056,-2.8089,-2.8109,-2.8135,-2.8175,-2.8206,-2.8219,-2.825,-2.8272,-2.8268,-2.828,-2.8278,-2.8281,-2.8211,-2.82,-2.8283,-2.8283,-2.8283,-2.8283,-2.8283,-2.8283,-2.7972,-2.8017,-2.802,-2.8073,-2.8085,-2.8122,-2.8136,-2.8156,-2.8172,-2.8216,-2.8243,-2.8251,-2.8268,-2.8301,-2.833,-2.8333,-2.8345,-2.8359,-2.836,-2.8294,-2.8286,-2.8277,-2.8266,-2.8362,-2.8362,-2.8427,-2.8428,-2.8428]},{"header":{"parameterUnit":"m.s-1","parameterCategory":1,"la1":30.2991,"la2":30.254,"lo1":-89.0895,"lo2":-89.0444,"dy":0.0017,"dx":0.0017,"nx":28,"ny":28,"refTime":"2025-04-24T21:00:00:Z","depth":0,"parameterNumber":3,"parameterNumberName":"V-component_of_WINDS"},"data":[0,0,0,0,0,0,0,0,0,0,0,0,0,0,0,0,0,0,0,0,0,0,0,0,0,0,0,0,0,0,0,0,0,0,0,0,0,0,0,0,0,0,0,0,0,0,0,0,0,0,0,0,0,0,0,0,0,0,3.6335,3.6335,0,3.639,3.6391,3.6391,3.6407,3.6406,3.6406,3.6406,3.6457,3.6459,3.646,0,0,0,0,0,0,0,0,0,0,0,0,0,3.6237,3.6239,3.6335,3.6335,3.6336,3.639,3.6391,3.6391,3.6407,3.6406,3.6406,3.6406,3.6457,3.6459,3.6461,0,0,0,0,0,0,0,0,0,0,0,0,0,3.6285,3.624,3.6334,3.635,3.6352,3.639,3.6391,3.6392,3.6407,3.6406,3.6406,3.6405,3.6456,3.6458,3.6461,3.6485,0,0,3.6468,3.647,0,0,0,0,0,0,0,0,3.6282,3.6288,3.6347,3.6349,3.6351,3.6391,3.6375,3.6423,3.6407,3.6386,3.6406,3.6405,3.6435,3.6439,3.6451,3.6488,3.649,3.6469,3.647,3.6471,3.6472,0,0,0,0,0,0,0,3.6279,3.6286,3.6356,3.6348,3.6351,3.6353,3.6359,3.6384,3.6412,3.6388,3.6389,3.6396,3.6436,3.6448,3.6452,3.6491,3.6469,3.6471,3.6472,3.6473,3.6551,3.6551,0,0,0,0,0,0,3.6273,3.6283,3.6355,3.6358,3.6315,3.6355,3.6362,3.6379,3.6412,3.6417,3.6396,3.6396,3.6444,3.6449,3.6454,3.6485,3.6471,3.6474,3.6475,3.655,3.6551,3.6552,0,0,0,0,0,0,3.6271,3.628,3.6352,3.6321,3.633,3.6357,3.6376,3.638,3.6392,3.6418,3.6423,3.6403,3.6444,3.645,3.6478,3.6487,3.6475,3.6477,3.655,3.6551,3.6551,3.6547,0,0,0,0,0,0,3.6268,3.6279,3.6289,3.6321,3.6332,3.6377,3.6376,3.6381,3.6397,3.6398,3.6426,3.6431,3.6444,3.6474,3.648,3.649,3.6479,3.6549,3.655,3.6551,3.6547,3.6548,3.6549,0,0,0,0,0,3.6265,3.6285,3.629,3.6298,3.6346,3.6377,3.6383,3.64,3.6398,3.6408,3.6425,3.643,3.6485,3.6477,3.6484,3.6495,3.6548,3.655,3.6551,3.6546,3.6548,3.6549,0,0,0,0,0,0,3.6251,3.6289,3.6295,3.6326,3.6349,3.638,3.6393,3.6401,3.6423,3.6422,3.644,3.6447,3.6473,3.6487,3.6477,3.652,3.6517,3.6519,3.6511,3.6512,3.6513,3.6509,3.6481,0,0,0,0,0,3.6252,3.6275,3.6307,3.6331,3.6342,3.6366,3.638,3.6391,3.6414,3.6423,3.6442,3.6463,3.6486,3.65,3.6521,3.6549,3.6555,3.656,3.6561,3.6562,3.6564,3.6579,3.6582,3.6556,3.6556,3.6556,0,0,3.6253,3.6277,3.629,3.6329,3.6348,3.6371,3.6373,3.6397,3.6414,3.6426,3.6454,3.6469,3.6493,3.6521,3.6534,3.6533,3.6572,3.6563,3.6564,3.6565,3.6581,3.6583,3.6586,3.6557,3.6557,3.6557,0,0,3.6267,3.6288,3.631,3.633,3.6359,3.6375,3.638,3.6411,3.6422,3.645,3.646,3.648,3.6517,3.6535,3.6549,3.6571,3.6576,3.6577,3.6583,3.6598,3.66,3.6602,3.661,3.6613,3.6579,3.6579,3.6579,0,3.6264,3.6301,3.6321,3.6345,3.6361,3.6376,3.6398,3.6415,3.6449,3.646,3.6459,3.6507,3.6525,3.6557,3.6563,3.6573,3.6579,3.6574,3.6599,3.6601,3.6603,3.6611,3.6613,3.6579,3.6579,3.6579,3.6579,0,3.6296,3.6322,3.6336,3.6371,3.6389,3.6412,3.6435,3.645,3.646,3.6476,3.6504,3.6526,3.6553,3.6562,3.657,3.6595,3.6594,3.6595,3.6592,3.6605,3.6613,3.6616,3.6579,3.6579,3.6579,3.6579,0,0,3.6302,3.6349,3.6354,3.6371,3.6405,3.6424,3.6447,3.6476,3.6489,3.6512,3.6531,3.6564,3.6566,3.6582,3.6592,3.6606,3.6623,3.6606,3.6607,3.6608,3.6651,3.665,3.6653,3.6627,3.6627,3.6628,3.6649,0,3.6321,3.6366,3.6384,3.642,3.6443,3.6458,3.6478,3.6501,3.6516,3.6537,3.6553,3.6576,3.6577,3.6587,3.6601,3.6618,3.6631,3.6616,3.6644,3.6645,3.6638,3.6657,3.6656,3.6675,3.6653,3.6653,3.6653,0,3.6348,3.6374,3.6412,3.6445,3.6455,3.6473,3.6501,3.6522,3.6547,3.6557,3.6575,3.6586,3.661,3.6606,3.6639,3.6628,3.6641,3.6651,3.6652,3.6655,3.665,3.6661,3.6682,3.6685,3.6658,3.6658,3.6658,0,3.6349,3.6393,3.6422,3.6435,3.6474,3.6486,3.6502,3.6527,3.6544,3.6567,3.6578,3.6603,3.6617,3.6636,3.6653,3.6648,3.6684,3.6681,3.6693,3.6692,3.6699,3.6699,3.6723,3.6708,3.6707,3.6707,3.6707,0,3.6367,3.639,3.6423,3.6441,3.6467,3.6488,3.6513,3.6529,3.6552,3.6572,3.6585,3.6604,3.6625,3.6646,3.6659,3.6685,3.6691,3.6699,3.6702,3.6698,3.6697,3.6706,3.6705,3.6708,3.6708,3.6708,3.6708,0,3.6372,3.6395,3.6428,3.6462,3.6471,3.6489,3.6518,3.6535,3.6551,3.6577,3.6584,3.6609,3.6635,3.6654,3.6686,3.6695,3.6722,3.6725,3.6714,3.6716,3.6726,3.6725,3.6757,3.6762,3.6743,3.6743,3.6743,0,3.6383,3.6401,3.6438,3.6454,3.6471,3.6495,3.6513,3.6534,3.6551,3.6582,3.6595,3.6622,3.6645,3.6684,3.6704,3.6729,3.6733,3.6743,3.6737,3.6732,3.6733,3.6732,3.6734,3.6743,3.6743,3.6743,3.6743,0,3.6399,3.641,3.6435,3.6465,3.6486,3.6509,3.6533,3.6545,3.657,3.6588,3.6615,3.6633,3.6667,3.6693,3.6721,3.6735,3.6743,3.6745,3.6749,3.6745,3.6738,3.6742,3.6716,3.6744,3.6744,3.6744,3.6744,3.6744,3.6407,3.6425,3.6454,3.6482,3.6502,3.6525,3.6543,3.6563,3.6586,3.6617,3.6628,3.6656,3.6681,3.6719,3.6734,3.6755,3.6755,3.6761,3.6762,3.6763,3.6763,3.6735,3.676,3.676,3.676,3.676,3.676,0,3.6424,3.6444,3.647,3.6504,3.6526,3.6534,3.656,3.6578,3.6603,3.6627,3.6649,3.6681,3.6706,3.6729,3.6756,3.6769,3.6773,3.6775,3.6774,3.6777,3.6762,3.6756,3.6771,3.6771,3.6771,3.6771,3.6771,3.6771,3.6436,3.6466,3.648,3.6521,3.654,3.6569,3.6584,3.6604,3.6623,3.6659,3.6681,3.6697,3.672,3.6748,3.6772,3.6778,3.6787,3.6788,3.6795,3.678,3.6778,3.6777,3.6771,3.679,3.679,3.6808,3.6809,3.6809]}]]